FW2985 Weather Reports


time (UTC)temp
F
wind
direction
speed
knots
gust
knots
rain 1hr
in
rain 24hr
in
rain mn
in
humidity
%
barometer
mb
20260508163002 41 0.0 0.0 0.00 0.00 0.00 90 1002.7
20260508161503 42 0.0 0.0 0.00 0.00 0.00 89 1002.5
20260508160002 42 0.0 0.0 0.00 0.00 0.00 89 1002.4
20260508154500 41 0.0 0.0 0.00 0.00 0.00 90 1002.5
20260508153104 41 0.0 0.0 0.00 0.00 0.00 89 1002.5
20260508151603 41 0.0 0.0 0.00 0.00 0.00 89 1002.5
20260508150058 41 357 0.0 0.0 0.00 0.00 0.00 90 1002.7
20260508144606 41 359 0.0 0.0 0.00 0.00 0.00 90 1002.7
20260508143059 43 338 0.0 0.0 0.00 0.00 0.00 89 1002.6
20260508141657 43 305 0.0 0.0 0.00 0.00 0.00 89 1002.7
20260508140057 43 317 0.0 0.0 0.00 0.00 0.00 89 1003.1
20260508134600 43 0.0 0.0 0.00 0.00 0.00 89 1003.2
20260508133047 44 0.0 0.0 0.00 0.00 0.00 89 1002.9
20260508131543 43 0.0 0.0 0.00 0.00 0.00 89 1002.7
20260508130039 43 0.0 0.0 0.00 0.00 0.00 89 1002.4
20260508124535 44 0.0 0.0 0.00 0.00 0.00 92 1002.4
20260508123030 46 0.0 0.0 0.00 0.00 0.00 93 1002.3
20260508121537 45 0.0 0.0 0.00 0.00 0.00 93 1002.6
20260508120022 43 0.0 0.0 0.00 0.00 0.00 93 1002.6
20260508114517 43 0.0 0.0 0.00 0.00 0.00 93 1002.6
20260508113016 43 0.0 0.0 0.00 0.00 0.00 93 1002.7
20260508111508 43 0.0 0.0 0.00 0.00 0.00 93 1002.6
20260508110013 44 0.0 0.0 0.00 0.00 0.00 94 1003.0
20260508104606 43 0.0 0.0 0.00 0.00 0.00 94 1003.2
20260508103055 41 0.0 0.0 0.00 0.00 0.00 94 1003.2
20260508101553 41 0.0 0.0 0.00 0.00 0.00 93 1003.1
20260508100046 40 0.0 0.0 0.00 0.00 0.00 93 1002.9
20260508094604 40 0.0 0.0 0.00 0.00 0.00 93 1002.8
20260508093038 40 0.0 0.0 0.00 0.00 0.00 93 1002.7
20260508091539 41 0.0 0.0 0.00 0.00 0.00 93 1002.7
20260508090028 41 0.0 0.0 0.00 0.00 0.00 93 1002.4
20260508084524 41 0.0 0.0 0.00 0.00 0.00 93 1002.2
20260508083019 42 0.0 0.0 0.00 0.00 0.00 93 1002.2
20260508081534 42 0.0 0.0 0.00 0.00 0.00 93 1001.7
20260508080011 42 0.0 0.0 0.00 0.00 0.00 93 1001.9
20260508074506 42 0.0 0.0 0.00 0.00 0.00 93 1001.9
20260508073002 42 0.0 0.0 0.00 0.00 0.00 93 1002.1
20260508071559 42 0.0 0.0 0.00 0.00 0.00 93 1002.2
20260508070055 43 0.0 0.0 0.00 0.00 0.00 93 1002.1
20260508064549 43 0.0 0.0 0.00 0.00 0.00 93 1002.2
20260508063054 43 0.0 0.0 0.00 0.00 0.00 93 1002.0
20260508061546 43 0.0 0.0 0.00 0.00 0.00 93 1002.1
20260508060039 43 0.0 0.0 0.00 0.00 0.00 93 1002.1
20260508054537 43 0.0 0.0 0.00 0.00 0.00 93 1002.4
20260508053039 43 0.0 0.0 0.00 0.00 0.00 93 1002.6
20260508051536 42 0.0 0.0 0.00 0.00 0.00 93 1002.7
20260508050036 43 0.0 0.0 0.00 0.00 0.00 93 1002.6
20260508044529 42 0.0 0.0 0.00 0.00 0.00 93 1002.5
20260508043024 42 0.0 0.0 0.00 0.00 0.00 93 1002.3
20260508041519 43 0.0 0.0 0.00 0.00 0.00 93 1002.8
20260508040015 43 0.0 0.0 0.00 0.00 0.00 93 1002.6
20260508034511 43 0.0 0.0 0.00 0.00 0.00 93 1002.6
20260508033007 47 0.0 0.0 0.00 0.00 0.00 93 1002.8
20260508031502 47 0.0 0.0 0.00 0.00 0.00 93 1002.5
20260508030103 47 0.0 0.0 0.00 0.00 0.00 93 1002.3
20260508024555 47 0.0 0.0 0.00 0.00 0.00 93 1002.5
20260508023049 47 0.0 0.0 0.00 0.00 0.00 93 1002.5
20260508020040 47 0.0 0.0 0.00 0.00 0.00 93 1003.0
20260508014541 47 0.0 0.0 0.00 0.00 0.00 93 1003.2
20260508013031 47 0.0 0.0 0.00 0.00 0.00 93 1003.1
20260508011528 47 0.0 0.0 0.00 0.00 0.00 93 1003.1
20260508010032 46 0.0 0.0 0.00 0.00 0.00 93 1003.0
20260508004518 46 0.0 0.0 0.00 0.00 0.00 93 1003.0
20260508003014 46 0.0 0.0 0.00 0.00 0.00 92 1003.1
20260508001511 46 0.0 0.0 0.00 0.00 0.00 92 1003.1
20260508000004 46 0.0 0.0 0.00 0.00 0.00 92 1003.0
20260507234601 46 0.0 0.0 0.00 0.00 0.00 91 1002.9
20260507233056 48 0.0 0.0 0.00 0.00 0.00 92 1002.4
20260507231555 50 0.0 0.0 0.00 0.00 0.00 92 1002.3
20260507230051 54 0.0 0.0 0.00 0.00 0.00 87 1001.8
20260507224545 56 0.0 0.0 0.00 0.00 0.00 88 1001.3
20260507223039 56 0.0 0.0 0.00 0.00 0.00 88 1001.3
20260507221539 56 0.0 0.0 0.00 0.00 0.00 88 1001.3
20260507220030 57 0.0 0.0 0.00 0.00 0.00 88 1001.3
20260507214527 56 0.0 0.0 0.00 0.00 0.00 91 1001.0
20260507213022 55 0.0 0.0 0.00 0.00 0.00 91 1001.0
20260507211522 55 0.0 0.0 0.00 0.00 0.00 91 1001.0
20260507210013 55 0.0 0.0 0.00 0.00 0.00 91 1001.0
20260507204508 54 0.0 0.0 0.00 0.00 0.00 91 1000.8
20260507203004 54 0.0 0.0 0.00 0.00 0.00 91 1000.9
20260507201616 54 0.0 0.0 0.00 0.00 0.00 92 1000.3
20260507200108 54 0.0 0.0 0.00 0.00 0.00 92 1000.1
20260507194552 54 0.0 0.0 0.00 0.00 0.00 91 1001.0
20260507193049 54 0.0 0.0 0.00 0.00 0.00 91 1001.6
20260507191542 55 0.0 0.0 0.00 0.00 0.00 91 1003.0
20260507190038 55 0.0 0.0 0.00 0.00 0.00 90 1002.8
20260507184534 54 0.0 0.0 0.00 0.00 0.00 91 1003.4
20260507183033 55 0.0 0.0 0.00 0.00 0.00 91 1003.6
20260507181530 54 0.0 0.0 0.00 0.00 0.00 91 1003.9
20260507180026 54 0.0 0.0 0.00 0.00 0.00 91 1004.2
20260507174520 54 0.0 0.0 0.00 0.00 0.00 90 1004.5
20260507173024 56 0.0 0.0 0.00 0.00 0.00 89 1004.0
20260507171509 56 0.0 0.0 0.00 0.00 0.00 89 1003.2
20260507170004 57 0.0 0.0 0.00 0.00 0.00 87 1003.0
20260507164604 58 0.0 0.0 0.00 0.00 0.00 85 1003.1